#timestamp,LO_Frequency,Hit,StdDev 
1558155615.5,286046997.0,P
1558155635.4,286046995.3,P
1558155655.2,286046996.4,P
1558155675.0,286046995.9,Y
1558155675.9,286046995.9,P
1558155695.8,286046999.4,N
1558155715.6,286046998.7,N
1558155735.4,286047001.2,N
1558155755.3,286047000.7,N
1558155775.1,286046999.5,N
1558155776.0,286046999.5,N
1558155795.8,286046998.8,N
1558155815.6,286046996.6,N
1558155835.5,286046998.9,N
1558155855.3,286046996.8,N
1558155875.1,286046995.7,N
1558155895.9,286046994.8,Y
1558155915.7,286046992.4,P
1558155935.5,286046991.4,N
1558155955.4,286046989.2,P
1558155975.2,286046990.0,N
1558155995.0,286046987.8,Y
1558155995.9,286046987.8,P
1558156015.8,286046994.0,N
1558156035.6,286046994.6,N
1558156055.4,286046994.4,N
1558156075.3,286046994.1,N
1558156095.1,286046994.2,N
1558156096.0,286046994.2,N
1558156115.8,286046994.7,N
1558156135.7,286046990.1,Y
1558156155.5,286046999.3,P
1558156175.3,286046997.8,N
1558156195.2,286046993.5,N
1558156215.9,286046994.3,N
1558156235.7,286046994.7,N
1558156255.6,286046992.5,Y
1558156275.4,286046995.7,P
1558156295.2,286046994.1,P
1558156315.1,286046994.5,P
1558156316.0,286046994.5,Y
1558156335.8,286046997.0,P
1558156355.6,286046997.1,N
1558156375.5,286046997.4,N
1558156395.3,286046995.0,Y
1558156415.1,286046999.4,P
1558156435.9,286046999.2,N
1558156455.7,286046995.3,P
1558156475.5,286046996.3,N
1558156495.4,286046993.9,Y
1558156515.2,286046995.0,P
1558156535.0,286046993.3,P
1558156535.9,286046993.3,P
1558156555.8,286046993.3,Y
1558156575.6,286046998.5,P
1558156595.4,286046996.5,N
1558156615.2,286046998.8,N
1558156635.1,286046999.6,N
1558156636.0,286046999.6,N
1558156655.8,286046999.6,N
1558156675.6,286046996.6,N
1558156695.5,286046999.4,N
1558156715.3,286046996.9,N
1558156735.1,286046997.4,N
1558156755.9,286046993.3,Y
1558156775.7,286046995.4,P
1558156795.5,286046995.7,P
1558156815.4,286046993.6,P
1558156835.2,286046991.9,Y
1558156855.0,286046997.6,P
1558156855.9,286046997.6,N
1558156875.8,286046994.9,P
1558156895.6,286046995.3,Y
1558156915.4,286046998.1,P
1558156935.3,286046998.5,N
1558156955.1,286047001.2,N
1558156975.8,286046999.5,N
1558156995.7,286046999.4,N
1558157015.5,286046999.2,N
1558157035.3,286046995.3,Y
1558157055.2,286046995.3,P
1558157075.9,286046995.9,N
1558157095.7,286046993.6,P
1558157115.6,286046992.2,Y
1558157135.4,286046999.2,P
1558157155.2,286046999.4,N
1558157175.1,286046999.1,N
1558157176.0,286046999.1,N
1558157195.8,286046997.7,N
1558157215.6,286046996.9,N
1558157235.5,286046996.2,Y
1558157255.3,286046995.8,P
1558157275.1,286046995.4,P
1558157295.9,286046994.9,P
1558157315.7,286046995.9,Y
1558157335.5,286046998.7,P
1558157355.4,286046996.7,N
1558157375.2,286046995.7,P
1558157395.0,286046996.4,Y
1558157395.9,286046996.4,P
1558157415.8,286046996.5,P
1558157435.6,286046995.3,P
1558157455.4,286046996.4,Y
1558157475.3,286046996.8,P
1558157495.1,286046994.9,P
1558157496.0,286046994.9,P
1558157515.8,286046995.4,Y
1558157535.7,286047000.0,P
1558157555.5,286047001.1,N
1558157575.3,286046996.7,N
1558157595.1,286046995.0,N
1558157615.9,286046997.1,N
1558157635.7,286046997.4,N
1558157655.5,286046995.0,N
1558157675.4,286046995.6,N
1558157695.2,286046998.0,N
1558157715.0,286046995.7,N
1558157715.9,286046995.7,N
1558157735.8,286046993.4,Y
1558157755.6,286046997.6,P
1558157775.4,286046995.5,P
1558157795.3,286046995.4,P
1558157815.1,286046996.1,Y
1558157835.8,286046998.9,P
1558157855.7,286046999.6,N
1558157875.5,286046994.9,P
1558157895.3,286046997.9,N
1558157915.2,286046997.3,N
1558157935.9,286046997.0,N
1558157955.7,286046995.3,Y
1558157975.6,286046996.6,P
1558157995.4,286046997.6,P
1558158015.2,286046997.6,P
1558158035.1,286046996.4,Y
1558158036.0,286046996.4,P
1558158055.8,286046997.7,P
1558158075.6,286046996.1,P
1558158095.5,286046995.9,Y
1558158115.3,286046999.2,P
1558158135.1,286046995.0,P
1558158155.9,286046997.6,N
1558158175.7,286046995.6,N
1558158195.5,286046993.5,Y
1558158215.4,286046995.9,P
1558158235.2,286046993.8,P
1558158255.0,286046994.8,P
1558158255.9,286046994.8,Y
1558158275.8,286046999.0,P
1558158295.6,286046995.2,N
1558158315.4,286046994.5,P
1558158335.3,286046990.9,Y
1558158355.1,286046992.3,P
1558158356.0,286046992.3,P
1558158375.8,286046989.4,P
1558158395.7,286046987.6,Y
1558158415.5,286046991.0,P
1558158435.3,286046986.0,P
1558158455.2,286046983.4,P
1558158475.9,286046978.4,Y
1558158495.7,286046985.2,P
1558158515.6,286046977.4,P
1558158535.4,286046975.5,P
1558158555.2,286046970.6,Y
1558158575.1,286046980.9,P
1558158576.0,286046980.9,P
1558158595.8,286046978.7,P
1558158615.6,286046974.2,Y
1558158635.5,286046991.6,P
1558158655.3,286046982.6,P
1558158675.1,286046977.6,P
1558158695.9,286046971.2,Y
1558158715.7,286046983.9,P
1558158735.5,286046979.1,P
1558158755.4,286046973.5,P
1558158775.2,286046967.6,Y
1558158795.0,286046977.6,P
1558158795.9,286046977.6,P
1558158815.8,286046972.9,P
1558158835.6,286046966.2,Y
1558158855.4,286046988.3,P
1558158875.3,286046980.8,P
1558158895.1,286046974.8,P
1558158896.0,286046974.8,Y
1558158915.8,286046989.3,P
1558158935.7,286046983.2,P
1558158955.5,286046978.0,P
1558158975.3,286046971.1,Y
1558158995.2,286046982.5,P
1558159015.9,286046979.4,P
1558159035.7,286046973.4,P
1558159055.6,286046967.3,Y
1558159075.4,286046981.8,P
1558159095.2,286046976.6,P
1558159115.1,286046973.4,P
1558159116.0,286046973.4,Y
1558159135.8,286046988.8,P
1558159155.6,286046985.2,N
1558159175.5,286046975.8,P
1558159195.3,286046971.2,Y
